Tracking 18844 objects as of 21-Nov-2017
HD Live streaming from Space Station
objects crossing your sky now

FENGYUN 1C DEB

Track FENGYUN 1C DEB now!
10-day predictions


NORAD ID: 29896
Int'l Code: 1999-025GS
Perigee: 850.9 km
Apogee: 1,214.8 km
Inclination: 99.5 °
Period: 105.7 minutes
Semi major axis: 7403 km
RCS: 0.0374 m2 (small)
Launch date: May 10, 1999
Source: People's Republic of China (PRC)
Launch site: Taiyaun Space Center, China (TSC)

Note: This is SATELLITE DEBRIS
aabbcc
Your satellite tracking list
Your tracking list is empty




NASA's NSSDC Master Catalog

Two Line Element Set (TLE):
1 29896U 99025GS  17325.31152076  .00000414  00000-0  47701-3 0  9993
2 29896  99.5386 241.0401 0245744  75.6459  43.3393 13.62739548539392
Source of the keplerian elements: AFSPC